Weather History for Hill City, KS

Change the Weather History Date:

Saturday, April 26, 2014

  Actual Average Record
Temperature  
Mean Temperature 71 °F 55 °F  
Max Temperature 92 °F 69 °F 94 °F (1955)
Min Temperature 50 °F 42 °F 25 °F (2006)
Cooling Degree Days 6    
Growing Degree Days 20 (Base 50)    
Moisture  
Dew Point 45 °F    
Average Humidity 47    
Maximum Humidity 77    
Minimum Humidity 9    
Precipitation  
Precipitation 0.00 in 0.08 in 0.11 in (2008)
Month to date precipitation 3.31 1.78  
Year to date precipitation 3.96 4.38  
Sea Level Pressure  
Sea Level Pressure 29.41 in    
Wind  
Wind Speed 12 mph (SSE)    
Max Wind Speed 28 mph    
Max Gust Speed 40 mph    
Visibility 10 miles    
Events      
T = Trace of Precipitation, MM = Missing Value Source: NWS Daily Summary

Daily Weather History Graph

Daily Weather History Graph

Search for Another Location

Airport:

Trip Planner

Search our weather history database for the weather conditions in past years. The results will help you decide how hot, cold, wet, or windy it might be!

Date:

Astronomy

Apr. 26, 2014 Rise Set
Actual Time 6:46 AM CDT 8:27 PM CDT
Civil Twilight 6:18 AM CDT 8:56 PM CDT
Nautical Twilight 5:43 AM CDT 9:31 PM CDT
Astronomical Twilight 5:07 AM CDT 10:08 PM CDT
Moon 5:11 AM CDT (4/26) 5:59 PM CDT (4/26)
Length of Visible Light 14h 38m
Length of Day
13h 41m
Waning Crescent, 8% of the Moon is Illuminated
Apr 26
Waning Crescent
Apr 29
New
May 6
First Quarter
May 14
Full
May 21
Last Quarter

Hourly Weather History & Observations

Time (CDT) Temp. Heat Index Dew Point Humidity Pressure Visibility Wind Dir Wind Speed Gust Speed Precip Events Conditions
12:53 AM 53.1 °F - 41.0 °F 64% 29.67 in 10.0 mi ENE 10.4 mph - N/A   Clear
1:53 AM 52.0 °F - 42.1 °F 69% 29.65 in 10.0 mi East 8.1 mph - N/A   Clear
2:53 AM 55.0 °F - 44.1 °F 67% 29.60 in 10.0 mi East 9.2 mph - N/A   Clear
3:53 AM 53.1 °F - 45.0 °F 74% 29.57 in 10.0 mi East 6.9 mph - N/A   Clear
4:53 AM 53.1 °F - 44.1 °F 71% 29.54 in 10.0 mi East 9.2 mph - N/A   Clear
5:53 AM 52.0 °F - 43.0 °F 71% 29.53 in 10.0 mi ESE 6.9 mph - N/A   Clear
6:53 AM 50.0 °F - 43.0 °F 77% 29.52 in 10.0 mi ESE 6.9 mph - N/A   Clear
7:53 AM 53.1 °F - 45.0 °F 74% 29.52 in 10.0 mi SE 3.5 mph - N/A   Clear
8:53 AM 61.0 °F - 46.9 °F 60% 29.51 in 10.0 mi SSW 9.2 mph - N/A   Clear
9:53 AM 68.0 °F - 46.9 °F 47% 29.48 in 10.0 mi SSW 13.8 mph - N/A   Clear
10:53 AM 73.0 °F - 45.0 °F 37% 29.46 in 10.0 mi SSW 16.1 mph - N/A   Clear
11:53 AM 77.0 °F - 44.1 °F 31% 29.43 in 10.0 mi South 12.7 mph - N/A   Clear
12:53 PM 82.0 °F - 39.9 °F 22% 29.40 in 10.0 mi Variable 6.9 mph - N/A   Clear
1:53 PM 86.0 °F - 37.0 °F 18% 29.37 in 10.0 mi SSW 12.7 mph 21.9 mph N/A   Clear
2:53 PM 90.0 °F - 28.0 °F 11% 29.33 in 10.0 mi SSW 23.0 mph 32.2 mph N/A   Clear
3:53 PM 91.0 °F - 24.1 °F 9% 29.30 in 10.0 mi SSW 17.3 mph 32.2 mph N/A   Clear
4:53 PM 91.9 °F - 26.1 °F 9% 29.27 in 10.0 mi South 21.9 mph 33.4 mph N/A   Clear
5:53 PM 86.0 °F 84.2 °F 54.0 °F 33% 29.27 in 10.0 mi SSE 27.6 mph 39.1 mph N/A   Clear
6:53 PM 84.0 °F - 52.0 °F 33% 29.27 in 10.0 mi South 26.5 mph 40.3 mph N/A   Clear
7:53 PM 81.0 °F 80.5 °F 54.0 °F 39% 29.26 in 10.0 mi SSE 20.7 mph 31.1 mph N/A   Clear
8:53 PM 78.1 °F - 57.0 °F 48% 29.25 in 10.0 mi SSE 19.6 mph 31.1 mph N/A   Clear
9:53 PM 77.0 °F - 55.9 °F 48% 29.25 in 10.0 mi SSE 21.9 mph 29.9 mph N/A   Clear
10:53 PM 75.0 °F - 57.0 °F 53% 29.25 in 10.0 mi SSE 17.3 mph 24.2 mph N/A   Mostly Cloudy
11:53 PM 73.0 °F - 57.0 °F 57% 29.23 in 10.0 mi South 19.6 mph 28.8 mph N/A   Mostly Cloudy